This is the latest recevied weather packets stored in our database for station/object I1SXT-13. If no packets are shown the sender has not sent any weather packets the latest 10 day(s).
| Time | Temp. | Humidity | Pressure | Rain* | Wind** | Luminosity | Snow |
|---|---|---|---|---|---|---|---|
| 1777882469 | 16.11° C | 66% | 1019.7 hPa | 0 mm | - | - | - |
| 1777882165 | 16.11° C | 67% | 1019.8 hPa | 0 mm | - | - | - |
| 1777881868 | 15.56° C | 67% | 1019.3 hPa | 0 mm | - | - | - |
| 1777881564 | 15.56° C | 69% | 1019.1 hPa | 0 mm | - | - | - |
| 1777881267 | 15° C | 70% | 1019.5 hPa | 0 mm | - | - | - |
| 1777880969 | 15° C | 71% | 1020 hPa | 0 mm | - | - | - |
| 1777879767 | 14.44° C | 71% | 1019.3 hPa | 0 mm | - | - | - |
| 1777879470 | 14.44° C | 72% | 1019.5 hPa | 0 mm | - | - | - |
| 1777879165 | 14.44° C | 70% | 1019.7 hPa | 0 mm | - | - | - |
| 1777878868 | 14.44° C | 70% | 1019.5 hPa | 0 mm | - | - | - |
| 1777878564 | 14.44° C | 70% | 1019.3 hPa | 0 mm | - | - | - |
| 1777878267 | 14.44° C | 72% | 1019.3 hPa | 0 mm | - | - | - |
| 1777877970 | 13.89° C | 71% | 1019.5 hPa | 0 mm | - | - | - |
| 1777877666 | 13.89° C | 70% | 1019.6 hPa | 0 mm | - | - | - |
| 1777877369 | 13.89° C | 70% | 1019.5 hPa | 0 mm | - | - | - |
| 1777877064 | 13.33° C | 71% | 1019.3 hPa | 0 mm | - | - | - |
| 1777876767 | 13.89° C | 68% | 1019.3 hPa | 0 mm | - | - | - |
| 1777876470 | 13.89° C | 66% | 1019.5 hPa | 0 mm | - | - | - |
| 1777875565 | 13.89° C | 68% | 1019 hPa | 0 mm | - | - | - |
| 1777875268 | 13.89° C | 66% | 1019.3 hPa | 0 mm | - | - | - |
| 1777874963 | 13.89° C | 68% | 1019.5 hPa | 0 mm | - | - | - |
| 1777874666 | 13.89° C | 66% | 1019.5 hPa | 0 mm | - | - | - |
| 1777874369 | 13.89° C | 65% | 1019.7 hPa | 0 mm | - | - | - |
| 1777874065 | 13.33° C | 66% | 1019.4 hPa | 0 mm | - | - | - |
| 1777873768 | 12.78° C | 69% | 1019.1 hPa | 0 mm | - | - | - |
* Rain since midnight (hover to see other rain measurements)
** Current wind speed in m/s (hover to see current wind gust speed)